PROFILE

 METAR AND TAF INFORMATION
ADDS - METARS form results

(0805 UTC 25 January 2022)
http://aviationweather.gov/metar/data/
 
LFBD 250800Z AUTO 10002KT 1800 0300 R23/2100U R05/0900U R29/P2300 BCFG NSC M00/M00 Q1033 TEMPO VV/// BECMG 4000 BR
LFBD 250730Z AUTO 11003KT 2100 0300 R23/1200U R05/0275D R29/P2300 BCFG NSC M01/M01 Q1033 TEMPO VV/// BECMG 4000 BR
TAF LFBD 250500Z 2506/2612 VRB03KT 4000 BR NSC TX10/2514Z TNM02/2506Z PROB40 2506/2509 0300 FG VV/// BECMG 2510/2512 CAVOK BECMG 2517/2519 3000 BR PROB40 2521/2610 0500 FG VV/// PROB30 2610/2612 BKN005 

 AIRPORT MAP

 RUNWAY INFORMATION
Runway 05 Runway length 10171 ft Runway width 148 ft
Runway elevation 160 ft Runway displaced threshold 0 ft Runway heading 46
Runway 23 Runway length 10171 ft Runway width 148 ft
Runway elevation 151 ft Runway displaced threshold 0 ft Runway heading 226
Runway 11 Runway length 7923 ft Runway width 148 ft
Runway elevation 153 ft Runway displaced threshold 0 ft Runway heading 107
Runway 29 Runway length 7923 ft Runway width 148 ft
Runway elevation 160 ft Runway displaced threshold 0 ft Runway heading 287

 AIRPORT FREQUENCIES
Type APP Name AQUITAINE Frequency 118.6 MHZ
Type ARR Name APP Frequency 121.2 MHZ
Type ATIS Name ATIS Frequency 131.15 MHZ
Type GND Name GND Frequency 121.9 MHZ
Type INFO Name AQUITAINE Frequency 120.575 MHZ
Type OPS Name OPNS Frequency 143.175 MHZ
Type TWR Name TWR Frequency 118.3 MHZ

 AIRPORT NEAR NAVIGATION AIDS
Type NDB Name Bordeaux Frequency 393 KHZ
Type TACAN Name Bordeaux Frequency 114400 KHZ
Type NDB Name Bordeaux Frequency 318 KHZ
Type VOR-DME Name Bordeaux Frequency 113750 KHZ
Type NDB Name Bordeaux Frequency 361 KHZ